DW6455 Weather Reports


time (UTC)temp
F
wind
direction
speed
knots
gust
knots
rain 1hr
in
rain 24hr
in
rain mn
in
humidity
%
barometer
mb
20260508115531 56 293 2.6 10.4 0.00 0.00 0.00 31 1025.8
20260508114531 56 338 3.5 8.7 0.00 0.00 0.00 31 1025.8
20260508113530 56 23 2.6 7.0 0.00 0.00 0.00 30 1025.8
20260508112530 55 315 3.5 8.7 0.00 0.00 0.00 30 1025.8
20260508111532 56 338 5.2 8.7 0.00 0.00 0.00 31 1025.9
20260508110532 55 0 2.6 7.0 0.00 0.00 0.00 32 1025.8
20260508105532 56 338 6.1 10.4 0.00 0.00 0.00 33 1025.8
20260508104531 55 0 4.3 10.4 0.00 0.00 0.00 32 1025.8
20260508103531 55 0 6.1 9.6 0.00 0.00 0.00 33 1025.8
20260508102530 55 338 6.1 10.4 0.00 0.00 0.00 33 1025.7
20260508101550 55 0 5.2 11.3 0.00 0.00 0.00 34 1025.7
20260508100531 54 0 3.5 11.3 0.00 0.00 0.00 34 1025.6
20260508095531 54 68 3.5 7.8 0.00 0.00 0.00 34 1025.6
20260508094530 53 293 2.6 8.7 0.00 0.00 0.00 38 1025.8
20260508093531 53 45 2.6 7.8 0.00 0.00 0.00 37 1025.6
20260508092611 54 0 4.3 10.4 0.00 0.00 0.00 35 1025.7
20260508091551 54 338 5.2 12.2 0.00 0.00 0.00 38 1025.7
20260508090530 54 315 7.0 10.4 0.00 0.00 0.00 38 1025.8
20260508085530 53 0 4.3 9.6 0.00 0.00 0.00 34 1025.7
20260508084530 53 338 5.2 10.4 0.00 0.00 0.00 40 1025.8
20260508083530 53 315 4.3 9.6 0.00 0.00 0.00 37 1025.7
20260508082530 53 0 7.0 14.8 0.00 0.00 0.00 36 1025.7
20260508081530 53 338 6.1 13.0 0.00 0.00 0.00 36 1025.6
20260508080532 53 0 6.1 14.8 0.00 0.00 0.00 37 1025.6
20260508075533 52 315 3.5 9.6 0.00 0.00 0.00 42 1025.5
20260508074531 52 338 4.3 12.2 0.00 0.00 0.00 42 1025.4
20260508073531 51 338 2.6 7.8 0.00 0.00 0.00 46 1025.4
20260508072531 51 338 5.2 11.3 0.00 0.00 0.00 47 1025.4
20260508071610 50 338 3.5 9.6 0.00 0.00 0.00 49 1025.3
20260508070530 50 338 4.3 9.6 0.00 0.00 0.00 50 1025.2
20260508065530 50 293 2.6 13.0 0.00 0.00 0.00 51 1025.1
20260508064530 49 293 1.7 6.1 0.00 0.00 0.00 52 1025.1
20260508063530 49 293 3.5 7.8 0.00 0.00 0.00 54 1025.0
20260508062531 48 0 1.7 7.0 0.00 0.00 0.00 56 1025.0
20260508061530 48 315 2.6 8.7 0.00 0.00 0.00 57 1024.9
20260508060531 47 338 2.6 7.0 0.00 0.00 0.00 59 1024.8
20260508055530 47 338 4.3 9.6 0.00 0.00 0.00 58 1024.7
20260508054530 47 338 3.5 10.4 0.00 0.00 0.00 59 1024.6
20260508053530 48 23 3.5 7.8 0.00 0.00 0.00 58 1024.6
20260508052550 48 45 2.6 4.3 0.00 0.00 0.00 59 1024.5
20260508051530 46 338 0.9 5.2 0.00 0.00 0.00 63 1024.3
20260508050530 43 338 0.9 3.5 0.00 0.00 0.00 68 1024.2
20260508045531 41 338 0.9 3.5 0.00 0.00 0.00 72 1024.1
20260508044531 40 338 0.9 4.3 0.00 0.00 0.00 74 1024.1
20260508043532 39 338 1.7 3.5 0.00 0.00 0.00 76 1024.0
20260508042531 38 338 0.9 3.5 0.00 0.00 0.00 77 1023.9
20260508041531 37 338 1.7 4.3 0.00 0.00 0.00 78 1023.8
20260508040532 36 338 0.9 4.3 0.00 0.00 0.00 78 1023.7
20260508035530 35 0.0 0.0 0.00 0.00 0.00 76 1023.6
20260508034530 34 0.0 0.0 0.00 0.00 0.00 73 1023.5
20260508033550 32 0.0 0.0 0.00 0.00 0.00 71 1023.4
20260508032531 31 0.0 0.0 0.00 0.00 0.00 71 1023.2
20260508031530 30 0.0 0.0 0.00 0.00 0.00 72 1023.0
20260508030530 30 0.0 0.9 0.00 0.00 0.00 72 1023.1
20260508025530 30 0.0 0.0 0.00 0.00 0.00 70 1023.0
20260508024530 29 0.0 0.0 0.00 0.00 0.00 69 1022.8
20260508023530 28 0.0 0.0 0.00 0.00 0.00 70 1022.7
20260508022530 28 0.0 0.0 0.00 0.00 0.00 72 1022.5
20260508021530 28 0.0 0.0 0.00 0.00 0.00 74 1022.5
20260508020531 28 0.0 0.0 0.00 0.00 0.00 75 1022.4
20260508015531 28 0.0 0.0 0.00 0.00 0.00 76 1022.4
20260508014531 29 0.0 0.0 0.00 0.00 0.00 76 1022.2
20260508013533 29 0.0 0.0 0.00 0.00 0.00 76 1022.1
20260508012533 29 0.0 0.0 0.00 0.00 0.00 76 1022.1
20260508011530 29 0.0 0.0 0.00 0.00 0.00 77 1022.0
20260508010532 29 0.0 0.0 0.00 0.00 0.00 78 1021.9
20260508005532 29 0.0 0.0 0.00 0.00 0.00 79 1021.8
20260508004530 29 0.0 0.0 0.00 0.00 0.00 79 1021.6
20260508003531 30 0.0 0.0 0.00 0.00 0.00 79 1021.6
20260508002531 30 0.0 0.0 0.00 0.00 0.00 79 1021.5
20260508001530 30 0.0 0.9 0.00 0.00 0.00 79 1021.4
20260508000531 30 0.0 0.0 0.00 0.00 0.00 79 1021.3
20260507235551 31 0.0 0.0 0.00 0.00 0.00 79 1021.2
20260507234530 31 0.0 0.9 0.00 0.00 0.00 78 1021.1
20260507233531 31 0.0 0.0 0.00 0.00 0.00 78 1021.0
20260507232531 31 0.0 0.0 0.00 0.00 0.00 78 1021.0
20260507231531 31 0.0 0.0 0.00 0.00 0.00 77 1020.9
20260507230611 32 0.0 0.0 0.00 0.00 0.00 76 1020.8
20260507225531 32 0.0 0.0 0.00 0.00 0.00 75 1020.7
20260507224532 32 0.0 1.7 0.00 0.00 0.00 74 1020.6
20260507223531 33 0.0 0.0 0.00 0.00 0.00 74 1020.4
20260507222531 33 0.0 0.0 0.00 0.00 0.00 72 1020.2
20260507221530 34 0.0 2.6 0.00 0.00 0.00 71 1020.1
20260507220550 35 0.0 0.0 0.00 0.00 0.00 69 1020.1
20260507215531 35 0.0 0.9 0.00 0.00 0.00 69 1020.0
20260507214531 35 338 1.7 2.6 0.00 0.00 0.00 68 1019.9
20260507213551 35 338 1.7 3.5 0.00 0.00 0.00 67 1019.6
20260507212530 36 338 1.7 2.6 0.00 0.00 0.00 66 1019.5
20260507211531 37 338 2.6 3.5 0.00 0.00 0.00 64 1019.4
20260507210531 38 338 2.6 4.3 0.00 0.00 0.00 62 1019.3
20260507205530 39 338 2.6 4.3 0.00 0.00 0.00 61 1019.2
20260507204530 39 338 2.6 3.5 0.00 0.00 0.00 59 1019.0
20260507203531 40 338 2.6 4.3 0.00 0.00 0.00 58 1018.8
20260507202530 41 338 3.5 5.2 0.00 0.00 0.00 57 1018.6
20260507201530 40 338 4.3 7.8 0.00 0.00 0.00 58 1018.5
20260507200531 40 315 3.5 7.0 0.00 0.00 0.00 58 1018.2
20260507195532 41 338 3.5 7.0 0.00 0.00 0.00 57 1018.1
20260507194532 42 338 2.6 7.8 0.00 0.00 0.00 55 1017.9
20260507193532 43 315 2.6 4.3 0.00 0.00 0.00 53 1017.8
20260507192531 44 315 0.9 2.6 0.00 0.00 0.00 52 1017.7
20260507191530 44 315 1.7 3.5 0.00 0.00 0.00 51 1017.6
20260507190531 45 315 2.6 6.1 0.00 0.00 0.00 51 1017.5
20260507185531 45 315 2.6 7.0 0.00 0.00 0.00 50 1017.3
20260507184551 46 315 1.7 4.3 0.00 0.00 0.00 50 1017.2
20260507183531 47 315 1.7 4.3 0.00 0.00 0.00 48 1017.1
20260507182552 47 315 2.6 4.3 0.00 0.00 0.00 47 1017.0
20260507181531 48 293 4.3 8.7 0.00 0.00 0.00 45 1016.9
20260507180531 49 315 4.3 9.6 0.00 0.00 0.00 43 1016.8
20260507175531 49 293 4.3 10.4 0.00 0.00 0.00 41 1016.7
20260507174531 49 293 4.3 9.6 0.00 0.00 0.00 40 1016.6
20260507173531 50 315 5.2 13.0 0.00 0.00 0.00 40 1016.4
20260507172531 50 315 0.9 3.5 0.00 0.00 0.00 38 1016.3
20260507171532 51 293 4.3 12.2 0.00 0.00 0.00 37 1016.2
20260507170531 51 293 3.5 8.7 0.00 0.00 0.00 37 1016.1
20260507165552 52 293 2.6 10.4 0.00 0.00 0.00 37 1016.2
20260507164533 52 293 1.7 5.2 0.00 0.00 0.00 37 1016.1
20260507163531 53 293 2.6 8.7 0.00 0.00 0.00 35 1015.9
20260507162531 53 315 5.2 11.3 0.00 0.00 0.00 35 1015.9
20260507161531 53 270 7.0 15.6 0.00 0.00 0.00 33 1015.8
20260507160530 54 270 5.2 13.0 0.00 0.00 0.00 34 1015.6
20260507155531 54 315 2.6 7.8 0.00 0.00 0.00 35 1015.6
20260507154531 54 315 4.3 11.3 0.00 0.00 0.00 34 1015.4
20260507153532 54 293 1.7 6.1 0.00 0.00 0.00 35 1015.4
20260507152531 54 293 5.2 11.3 0.00 0.00 0.00 34 1015.4
20260507151551 54 315 5.2 12.2 0.00 0.00 0.00 34 1015.3
20260507150530 54 315 5.2 12.2 0.00 0.00 0.00 33 1015.3
20260507145530 54 315 3.5 9.6 0.00 0.00 0.00 33 1015.3
20260507144530 55 315 3.5 8.7 0.00 0.00 0.00 31 1015.2
20260507143531 55 315 4.3 10.4 0.00 0.00 0.00 32 1015.2
20260507142530 54 315 1.7 4.3 0.00 0.00 0.00 31 1015.1
20260507141551 54 293 2.6 7.8 0.00 0.00 0.00 29 1015.1
20260507140530 55 293 3.5 9.6 0.00 0.00 0.00 29 1015.1
20260507135531 55 270 3.5 9.6 0.00 0.00 0.00 28 1015.1
20260507134531 55 293 4.3 9.6 0.00 0.00 0.00 28 1015.0
20260507133551 55 315 0.9 7.8 0.00 0.00 0.00 29 1015.0
20260507132531 55 293 1.7 5.2 0.00 0.00 0.00 29 1015.1
20260507131531 55 293 3.5 10.4 0.00 0.00 0.00 27 1015.1
20260507130530 56 338 6.1 9.6 0.00 0.00 0.00 27 1015.0
20260507125531 55 315 6.1 10.4 0.00 0.00 0.00 30 1015.1
20260507124531 55 338 3.5 8.7 0.00 0.00 0.00 27 1015.1
20260507123530 55 293 2.6 11.3 0.00 0.00 0.00 27 1015.1
20260507122531 54 293 2.6 8.7 0.00 0.00 0.00 29 1015.1
20260507121611 54 293 2.6 8.7 0.00 0.00 0.00 29 1015.1
20260507120531 54 158 2.6 7.0 0.00 0.00 0.00 31 1015.1